Flag for Germany Weather past 2 weeks in Regensburg, Bavaria, Germany

Now
55 °F

Clear.


Feels Like: 55 °F
Forecast: 52 / 78 °F
Wind: 2 mph from North

Location: Regensburg

Current Time: Jul 24, 2014 at 6:00:57 AM

Latest Report: Jul 24, 2014 at 5:00 AM


Visibility: 5 mi

Pressure: 29.92 "Hg

Humidity: 94%

Dew point: 54 °F

Location of RegensburgLocation

Historic Weather in Regensburg — Graph

°F

Regensburg temperature yesterday

Maximum temperature yesterday: 83 °F (at 4:00 PM)
Minimum temperature yesterday: 58 °F (at 4:00 AM)
Average temperature yesterday: 69 °F

Past Weeks' High & Low Weather Summary

 TemperatureHumidityPressure
High91 °F (Jul 20, 3:00 PM)98% (Jul 12, 6:00 AM)30.17 "Hg (Jul 12, 6:00 AM)
Low51 °F (Jul 10, 3:00 AM)26% (Jul 18, 7:00 PM)29.74 "Hg (Jul 20, 4:00 PM)
Average68 °F72%29.93 "Hg
* Reported Jul 9 3:00 PM — Jul 24 5:00 AM, Regensburg, Weather by CustomWeather, © 2014

Note: Actual official high and low records may vary slightly from our data, if they occured in-between our weather recording intervals... More about our weather records

Advertising

Regensburg weather history for previous 24 hours

 ConditionsComfort  
Time TempWeatherWind HumidityBarometerVisibility
5:00 AM
Jul 24
55 °FClear.2 mph94%29.92 "Hg5 mi
4:00 AM57 °FClear.1 mph91%29.92 "Hg7 mi
3:00 AM58 °FClear.3 mph88%29.93 "Hg10 mi
2:00 AM59 °FClear.2 mph85%29.94 "Hg11 mi
1:00 AM60 °FPassing clouds.No wind86%29.95 "Hg14 mi
12:00 AM61 °FPassing clouds.2 mph83%29.95 "Hg14 mi
11:00 PM
Jul 23
63 °FPassing clouds.2 mph76%29.95 "Hg18 mi
10:00 PM65 °FClear.2 mph71%29.94 "Hg17 mi
9:00 PM69 °FSunny.2 mph61%29.92 "Hg22 mi
8:00 PM73 °FPartly sunny.2 mph54%29.91 "Hg28 mi
7:00 PM76 °FPassing clouds.5 mph47%29.90 "Hg31 mi
6:00 PM81 °FPassing clouds.5 mph40%29.89 "Hg25 mi
5:00 PM79 °FPartly sunny.5 mph43%29.90 "Hg31 mi
4:00 PM83 °FPassing clouds.3 mph35%29.90 "Hg22 mi
3:00 PM82 °FSunny.2 mph33%29.92 "Hg22 mi
6:00 AM58 °FSunny.2 mph91%30.01 "Hg12 mi
Weather by CustomWeather, © 2014

See weather overviewHow to use our weather pages